Bennington, VT

12:40 AM EDT on August 17, 2017 (GMT -0400)
Morse State

Weather History for KDDH - February, 2015

Change the Weather History Date:

Thursday, February 26, 2015

  Actual Average Record
Temperature  
Mean Temperature 12 °F 28 °F  
Max Temperature 19 °F 38 °F 36 °F (2017)
Min Temperature 4 °F 18 °F 4 °F (2014)
Degree Days  
Heating Degree Days 53 37  
Month to date heating degree days 1409 1046  
Since 1 July heating degree days 5389 5177  
Cooling Degree Days 0 0  
Month to date cooling degree days 0 0  
Year to date cooling degree days 0 0  
Moisture  
Dew Point -1 °F    
Average Humidity 65    
Maximum Humidity 83    
Minimum Humidity 46    
Precipitation  
Precipitation 0.00 in 0.09 in 0.02 in (2016)
Month to date precipitation 1.01 2.05  
Year to date precipitation 3.41 4.80  
Sea Level Pressure  
Sea Level Pressure 30.06 in    
Wind  
Wind Speed 3 mph (West)    
Max Wind Speed 12 mph    
Max Gust Speed 14 mph    
Visibility 10 miles    
Events      
T = Trace of Precipitation, MM = Missing Value Source: NWS Daily Summary

Daily Weather History Graph

Daily Weather History Graph

Search for Another Location

Airport or City:

Trip Planner

Search our weather history database for the weather conditions in past years. The results will help you decide how hot, cold, wet, or windy it might be!

Date:

Astronomy

Feb. 26, 2015 Rise Set
Actual Time 6:34 AM EST 5:38 PM EST
Civil Twilight 6:05 AM EST 6:06 PM EST
Nautical Twilight 5:32 AM EST 6:39 PM EST
Astronomical Twilight 5:00 AM EST 7:12 PM EST
Moon 11:32 AM EST (2/26) 1:31 AM EST (2/26)
Length of Visible Light 12h 01m
Length of Day
11h 04m
First Quarter, 60% of the Moon is Illuminated
Feb 26
First Quarter
Mar 5
Full
Mar 13
Last Quarter
Mar 20
New
Mar 27
First Quarter

Hourly Weather History & Observations

Time (EST) Temp. Windchill Dew Point Humidity Pressure Visibility Wind Dir Wind Speed Gust Speed Precip Events Conditions
12:54 AM 10.0 °F - 1.0 °F 67% 30.06 in 10.0 mi Calm Calm - N/A   Clear
1:54 AM 9.0 °F - 1.9 °F 73% 30.06 in 10.0 mi Calm Calm - N/A   Clear
2:54 AM 7.0 °F - 1.0 °F 77% 30.04 in 10.0 mi Calm Calm - N/A   Clear
3:54 AM 5.0 °F -2.1 °F -0.0 °F 80% 30.06 in 10.0 mi South 3.5 mph - N/A   Clear
4:54 AM 6.1 °F - -0.0 °F 76% 30.05 in 10.0 mi Calm Calm - N/A   Clear
5:54 AM 5.0 °F -2.1 °F -0.0 °F 80% 30.05 in 10.0 mi North 3.5 mph - N/A   Clear
6:54 AM 9.0 °F - 1.0 °F 70% 30.06 in 10.0 mi Calm Calm - N/A   Overcast
7:54 AM 9.0 °F 2.4 °F 1.0 °F 70% 30.09 in 10.0 mi North 3.5 mph - N/A   Overcast
8:54 AM 10.9 °F - 1.0 °F 64% 30.09 in 10.0 mi Calm Calm - N/A   Overcast
9:54 AM 10.9 °F - 1.0 °F 64% 30.07 in 10.0 mi Calm Calm - N/A   Overcast
10:54 AM 12.9 °F 5.2 °F 1.0 °F 59% 30.06 in 10.0 mi NW 4.6 mph - N/A   Overcast
11:54 AM 15.1 °F - 1.9 °F 56% 30.04 in 10.0 mi Calm Calm - N/A   Overcast
12:54 PM 15.1 °F 3.3 °F -0.0 °F 51% 30.02 in 10.0 mi West 9.2 mph - N/A   Overcast
1:54 PM 16.0 °F 4.4 °F -0.9 °F 47% 30.00 in 10.0 mi West 9.2 mph - N/A   Partly Cloudy
2:54 PM 18.0 °F 7.7 °F -0.9 °F 44% 29.99 in 10.0 mi WNW 8.1 mph - N/A   Clear
3:54 PM 17.1 °F 7.6 °F -0.9 °F 45% 30.01 in 10.0 mi West 6.9 mph - N/A   Mostly Cloudy
4:54 PM 16.0 °F 5.3 °F -2.9 °F 43% 30.03 in 10.0 mi West 8.1 mph - N/A   Clear
5:54 PM 15.1 °F 6.4 °F -2.9 °F 45% 30.05 in 10.0 mi West 5.8 mph - N/A   Mostly Cloudy
6:54 PM 14.0 °F 8.2 °F -4.0 °F 45% 30.07 in 10.0 mi SW 3.5 mph - N/A   Overcast
7:54 PM 12.9 °F - -2.9 °F 49% 30.09 in 10.0 mi Calm Calm - N/A   Overcast
8:54 PM 12.0 °F 2.7 °F -4.0 °F 49% 30.12 in 10.0 mi WNW 5.8 mph - N/A   Overcast
9:54 PM 10.9 °F - -5.1 °F 49% 30.14 in 10.0 mi Calm Calm - N/A   Overcast
10:54 PM 10.0 °F - -5.1 °F 51% 30.13 in 10.0 mi Calm Calm - N/A   Overcast
11:54 PM 9.0 °F 0.6 °F -4.0 °F 56% 30.17 in 10.0 mi SSW 4.6 mph - N/A   Overcast